Wind_Speed
51 53 49 43 47 49 48 44 39 39 38 35 35 34 32 29 30 29 30 28 25 24 22 24 25 21 20 22 20 23 22 19 22 16 11 9 11 12 15 21 21 13 10 7 8 7 9 34 37 33 40 42 44 46
47 49 54 51 49 45 43 41 41 39 37 37 37 35 34 31 32 32 31 32 29 27 24 24 26 26 25 27 22 21 22 23 19 16 18 18 24 23 23 14 19 10 19 17 13 18 28 34 34 33 35 40 42 45
55 50 54 57 53 49 46 42 43 38 35 35 36 37 35 34 35 35 32 34 34 30 30 30 28 24 19 22 28 21 24 25 26 25 26 24 20 24 20 24 28 25 28 24 25 28 30 31 30 31 33 35 39 42
56 54 52 54 59 57 54 52 48 44 41 42 38 36 37 37 36 36 35 35 35 33 36 36 35 33 32 28 21 26 25 28 29 27 27 28 29 28 30 33 36 31 27 25 27 27 31 30 32 32 32 33 34 34
60 61 57 52 56 58 54 55 55 54 52 50 50 45 42 38 38 38 39 39 37 35 28 22 24 19 21 32 32 31 33 34 31 28 30 29 33 32 33 35 31 22 23 21 25 29 29 29 31 32 33 34 36 39
60 57 57 56 55 53 56 58 54 58 56 50 50 51 48 45 43 39 42 44 41 39 39 41 42 40 41 34 29 32 35 33 31 30 31 33 31 31 24 37 36 27 24 18 21 27 27 29 30 31 32 33 34 35
61 59 53 56 58 55 53 55 56 60 55 51 55 60 55 51 47 46 48 43 38 37 38 38 36 42 41 38 33 30 32 30 31 32 33 36 34 33 39 41 26 19 14 15 21 26 25 28 29 29 30 32 33 34
60 58 55 51 55 58 55 51 55 55 52 52 53 43 60 57 53 49 50 51 46 39 30 29 23 24 24 25 25 28 30 32 34 31 37 40 38 36 31 23 18 16 13 15 22 24 25 27 28 29 30 31 32 33
57 57 54 50 49 54 55 48 48 49 43 39 44 44 61 63 60 57 49 48 48 41 34 40 40 29 28 30 31 30 28 30 35 33 34 29 35 32 30 29 23 18 15 16 22 22 22 24 26 29 30 31 33 34
53 56 53 50 46 47 53 51 41 47 31 44 47 49 60 69 66 53 45 45 43 44 48 52 45 37 29 29 25 24 25 22 26 27 22 26 45 31 24 24 24 19 14 17 20 20 20 22 24 28 30 32 34 35
50 54 53 50 47 46 47 53 44 27 30 40 57 61 55 61 65 55 40 34 36 42 47 61 56 39 43 41 34 26 16 13 12 18 15 18 41 26 20 16 18 15 12 17 17 17 18 20 22 25 29 32 34 35
47 50 52 48 48 44 46 44 57 33 28 38 54 59 56 50 29 28 25 31 26 35 41 29 33 41 49 45 37 23 20 11 11 15 10 16 26 19 19 14 12 10 13 15 15 16 17 19 21 25 28 30 32 33
46 48 50 48 45 44 43 40 51 56 34 42 60 53 46 31 18 17 28 42 42 36 25 27 34 34 33 33 24 14 12 12 14 12 15 35 30 21 14 12 12 10 12 13 13 14 16 19 22 25 28 31 33 32
43 45 48 47 44 41 37 35 42 55 49 48 52 36 30 13 19 45 50 53 52 38 36 32 25 30 33 26 17 10 15 11 10 13 31 31 22 16 14 15 10 11 11 12 12 13 15 20 24 28 30 32 32 31
40 43 45 45 43 38 36 40 40 38 37 48 33 17 33 38 31 27 43 50 44 35 33 30 36 35 29 17 15 13 10 11 14 19 22 15 11 12 15 13 11 12 11 11 11 13 16 21 25 30 32 34 33 31
38 39 45 42 40 36 32 35 48 34 40 37 29 27 21 26 38 48 42 35 35 40 39 37 38 19 20 13 16 17 15 20 25 21 18 13 11 15 15 12 12 11 10 10 11 14 18 22 26 30 33 34 32 30
31 38 39 36 34 31 29 35 54 50 44 35 32 30 40 37 29 34 37 44 39 33 38 31 20 19 14 15 25 30 44 36 25 22 16 12 13 15 14 13 12 10 10 10 12 15 19 22 26 29 31 33 30 28
34 35 33 32 33 36 30 36 54 39 29 37 41 35 32 39 37 36 30 34 38 40 41 39 29 26 23 30 36 29 23 24 23 18 17 15 16 16 15 14 12 10 9 10 12 16 19 22 25 28 30 30 28 27
31 26 30 33 32 39 40 49 64 26 26 44 45 44 42 35 33 37 36 31 31 36 39 42 26 36 43 40 32 26 23 17 17 17 18 19 19 18 15 13 12 10 9 10 13 16 19 22 25 28 29 28 27 26
27 27 27 30 39 34 44 40 48 48 24 37 49 42 34 37 37 34 30 32 32 35 40 42 46 37 19 17 20 22 22 19 18 17 18 20 19 16 14 13 11 11 9 11 13 15 18 21 24 26 26 25 26 25
29 30 28 29 28 37 42 30 35 42 46 21 33 40 44 37 31 34 35 33 34 39 43 42 35 37 38 35 29 22 19 18 15 15 16 18 17 15 14 13 12 10 10 11 13 14 17 20 23 24 24 23 24 22
28 29 30 26 31 43 44 26 29 33 37 48 40 28 30 37 40 37 32 36 40 45 43 37 35 38 37 36 33 26 21 19 21 23 21 19 16 13 14 14 12 11 10 11 12 14 16 18 20 22 23 21 20 18
31 29 29 29 37 33 29 34 28 26 26 33 35 34 34 32 34 34 39 43 50 44 40 38 35 38 40 33 29 25 22 19 21 22 21 19 16 14 14 13 13 11 10 11 12 14 15 16 18 20 21 18 16 15
33 28 26 22 23 16 27 30 31 31 31 28 26 27 31 35 34 34 42 48 39 31 32 34 36 39 37 36 31 25 21 22 27 26 22 20 17 15 15 15 13 11 10 11 12 14 14 15 17 18 19 18 16 15
28 24 18 20 18 24 23 28 33 34 33 35 32 29 27 30 30 38 45 40 32 32 31 33 35 36 33 30 28 26 25 25 26 26 24 22 18 16 16 15 13 12 11 11 13 13 14 16 17 17 18 18 17 16
17 18 15 15 27 27 30 30 27 29 31 32 31 30 30 25 26 23 27 25 26 28 29 27 28 29 27 26 29 30 27 26 28 27 23 19 18 18 17 14 13 12 13 13 14 14 16 17 17 17 17 17 18 17
17 18 27 27 25 27 31 32 33 26 27 29 26 28 29 21 18 24 22 23 23 16 22 30 30 29 30 30 29 30 28 29 28 25 23 22 21 19 17 15 13 14 15 16 16 16 18 19 18 18 18 17 17 17
23 20 20 22 25 25 24 26 27 29 32 35 34 31 21 18 22 19 9 12 18 20 18 20 27 30 29 30 28 29 30 30 31 29 26 23 21 20 17 15 15 15 17 17 17 19 19 19 19 19 18 18 17 17
22 22 23 21 19 20 24 26 28 28 28 27 28 28 29 30 24 18 17 19 20 20 19 20 21 24 27 25 27 29 30 30 28 25 22 21 20 18 17 16 17 18 17 17 19 20 20 20 19 19 19 18 18 17
18 17 19 19 21 25 26 25 24 26 27 22 24 25 24 20 17 17 19 19 17 16 15 16 15 16 18 20 21 24 26 27 27 26 24 22 20 19 17 18 18 18 18 19 20 20 20 19 20 20 19 18 18 18
23 15 19 19 21 22 23 19 19 20 21 23 24 25 19 18 20 20 17 14 14 15 16 19 22 23 23 23 23 22 23 24 23 23 22 21 20 19 19 19 18 18 19 20 20 20 20 20 19 18 18 18 17 17
20 24 27 21 18 15 16 18 17 16 16 17 19 18 17 18 19 18 18 16 15 15 16 18 21 22 23 24 24 24 24 24 24 22 22 22 22 20 19 18 19 19 20 19 20 20 19 18 17 16 16 15 16 16
19 18 19 20 16 13 13 13 11 9 10 12 13 15 15 13 12 14 13 15 17 18 20 21 21 20 20 20 22 23 23 23 23 23 23 23 22 21 20 20 20 20 21 21 21 21 19 18 17 16 15 15 14 14
Wind_Direction
236 229 224 229 241 243 245 251 250 250 247 246 246 249 248 248 250 251 257 254 253 263 275 276 280 285 288 293 298 308 313 322 326 326 314 315 289 304 298 302 304 301 303 302 314 274 295 318 323 326 322 332 335 338
247 240 233 231 235 236 241 245 244 248 246 245 246 245 245 246 248 249 250 256 253 257 264 271 274 281 285 289 290 298 305 310 309 310 310 308 296 298 299 299 306 296 303 285 281 286 309 313 319 325 328 334 339 339
248 245 235 237 230 233 233 237 239 241 244 244 246 245 244 243 245 247 247 252 254 257 267 269 271 272 276 279 292 294 304 303 307 308 305 303 294 300 296 299 301 301 304 291 301 323 319 321 325 331 333 338 341 342
244 245 239 235 233 234 235 235 233 239 243 244 249 250 249 246 246 246 246 248 250 253 257 264 267 272 276 275 284 296 297 303 302 300 300 298 297 303 296 297 299 302 300 302 303 321 321 328 334 337 338 336 341 345
241 242 244 241 238 235 234 233 235 234 239 243 247 249 247 246 246 245 246 246 245 244 251 264 256 241 271 280 287 289 296 300 296 292 296 294 300 299 303 298 307 310 308 294 303 323 325 330 333 337 339 340 341 345
245 246 244 246 244 239 238 238 238 232 238 234 245 248 246 249 240 245 246 244 243 244 247 260 261 261 267 271 271 276 285 288 286 288 295 292 301 294 290 291 312 313 300 289 312 322 326 330 335 339 342 340 342 344
245 247 248 245 250 250 245 241 242 229 230 234 234 241 244 245 245 238 243 249 243 247 252 257 266 263 261 265 264 264 271 278 283 286 287 292 295 288 287 295 308 300 281 292 318 324 327 331 335 339 343 343 343 345
245 246 248 248 245 246 249 246 240 234 229 233 231 241 239 236 240 239 241 239 245 247 249 246 249 238 245 252 248 260 268 278 280 281 290 289 291 286 284 307 303 298 282 296 319 323 329 332 335 338 343 343 342 342
245 245 246 247 249 246 246 248 244 235 228 234 235 237 236 228 233 237 239 239 241 240 238 246 249 253 253 254 257 262 265 273 282 278 281 284 282 272 295 295 289 285 282 299 318 322 328 330 333 338 340 342 341 343
245 242 244 245 246 246 248 248 250 241 242 240 241 241 234 226 229 228 229 235 234 238 239 245 246 238 246 256 250 255 269 268 269 276 277 273 284 295 288 280 272 269 271 303 316 320 326 331 334 337 338 340 340 340
245 240 240 243 243 246 239 246 247 259 244 240 236 233 230 228 222 218 217 222 221 232 241 242 241 242 250 251 253 254 254 261 262 266 254 271 282 299 295 276 256 249 273 303 311 316 324 331 336 337 337 337 337 336
243 241 237 237 242 241 245 236 241 245 270 248 238 234 221 219 211 210 203 209 223 227 232 233 240 239 242 244 244 250 240 237 246 254 245 266 291 289 293 273 233 236 290 301 308 318 323 331 336 336 336 337 334 334
239 238 235 234 235 240 241 237 241 242 261 249 222 220 214 211 204 195 195 211 219 222 226 232 231 222 227 230 223 222 217 225 243 242 251 268 280 282 267 243 218 276 297 301 307 316 323 330 336 335 335 336 333 331
236 236 232 230 230 234 242 233 247 246 248 234 217 215 214 199 214 222 226 223 224 229 231 230 220 215 217 210 205 206 214 221 232 236 255 277 274 264 239 214 250 286 294 296 306 315 324 332 333 334 334 334 333 330
234 233 229 226 226 230 233 230 237 246 244 226 213 219 226 224 229 232 230 233 232 233 232 227 224 215 213 198 200 207 204 216 224 250 275 263 243 240 215 229 271 290 289 294 303 315 328 333 333 333 334 333 332 328
231 229 225 221 223 226 224 231 224 237 239 214 217 222 223 224 231 232 232 231 233 233 230 222 210 206 205 203 201 205 211 231 259 269 257 245 259 215 225 255 275 281 284 291 306 321 330 332 334 334 333 332 329 327
221 228 220 217 218 215 208 222 225 221 221 220 223 227 225 232 240 241 241 239 235 222 219 208 203 203 206 209 220 226 236 254 259 261 244 264 225 227 249 264 274 274 279 294 314 323 327 332 334 334 333 332 328 326
219 225 215 214 211 192 219 222 223 219 224 218 220 223 229 231 235 235 235 236 234 229 225 214 215 205 215 233 230 248 253 249 252 247 256 242 231 242 252 264 269 269 279 298 317 320 326 332 333 335 334 333 330 326
219 224 212 211 205 196 215 214 215 218 226 220 224 227 230 230 230 238 241 231 234 235 230 221 223 233 237 244 253 256 259 251 251 255 238 234 233 238 245 259 261 264 277 300 312 319 328 332 335 337 336 335 333 332
221 214 208 202 194 211 215 213 216 214 231 230 226 225 232 232 231 229 234 234 229 227 224 231 236 238 248 238 240 248 252 258 253 239 232 225 231 239 251 249 247 257 275 296 310 322 328 331 335 338 339 337 336 337
210 200 192 198 199 213 219 217 219 223 216 234 229 231 233 230 228 228 232 230 226 231 236 243 244 245 246 248 250 253 252 257 245 229 227 233 231 238 248 244 243 251 275 296 311 323 326 330 335 342 341 338 340 341
202 193 184 197 208 215 220 221 225 230 229 234 235 231 234 236 238 231 231 230 238 243 243 248 249 248 246 248 249 251 248 238 229 229 225 223 231 244 243 240 242 254 274 295 309 317 323 328 336 341 341 337 340 346
194 188 190 201 208 212 221 223 230 233 234 240 244 239 239 237 232 233 229 237 242 248 250 246 244 246 244 245 241 247 242 233 223 221 223 227 235 243 239 237 243 256 277 293 303 313 318 326 333 337 338 334 332 332
192 196 202 211 211 209 217 221 230 233 240 247 247 230 238 235 235 228 234 244 248 255 253 250 247 246 245 239 243 246 234 225 221 224 228 230 237 241 234 234 243 257 273 285 299 306 312 320 326 329 333 332 326 319
192 204 206 213 216 220 219 225 225 230 236 249 248 232 233 237 233 238 248 258 258 253 251 251 245 243 237 237 243 236 228 227 228 225 226 230 237 238 231 236 247 258 272 282 292 299 307 311 313 317 325 330 322 315
197 198 204 212 215 220 221 228 234 233 234 240 235 235 238 238 238 247 262 271 263 251 242 244 245 240 236 236 237 233 229 224 219 221 227 232 236 230 229 235 246 259 272 279 286 295 299 301 303 308 315 319 320 310
215 212 218 219 216 222 227 230 235 238 241 239 242 241 241 239 251 255 262 262 252 256 238 231 230 230 233 235 234 223 215 216 216 222 223 228 228 226 230 235 245 260 269 276 283 290 291 294 298 301 306 307 310 310
216 224 228 232 230 233 238 241 246 249 252 253 249 238 236 236 246 249 258 235 238 231 228 228 222 224 218 209 212 210 212 212 217 221 226 228 223 225 232 241 252 260 266 274 283 284 286 290 293 295 297 298 300 303
228 230 235 236 232 231 239 242 244 245 245 237 234 231 229 235 234 238 250 240 232 232 225 218 215 207 208 210 206 206 210 215 221 226 225 221 223 229 237 247 257 262 269 277 280 281 284 287 289 289 289 290 292 294
229 232 233 237 239 238 244 246 247 246 241 243 236 227 222 224 236 260 243 223 217 209 197 200 193 197 208 214 217 217 214 212 210 207 212 219 226 235 244 253 259 263 270 275 277 280 282 283 284 284 284 285 285 286
223 228 233 245 253 255 250 246 240 241 243 244 242 232 235 233 235 223 198 188 191 192 197 198 198 195 194 196 198 202 207 208 209 213 218 224 231 239 248 254 259 265 270 274 278 279 279 280 280 281 282 282 282 282
236 242 248 256 261 260 248 239 244 247 242 234 227 225 219 207 187 177 174 185 192 203 202 197 191 191 194 197 200 204 209 212 216 220 226 231 237 244 249 253 259 265 271 275 275 274 274 274 276 278 280 280 281 281
242 246 243 243 251 253 237 221 212 201 195 186 191 188 174 170 176 184 189 201 207 207 203 201 201 203 206 209 212 216 219 222 226 230 233 237 241 243 246 251 257 263 267 268 269 268 266 266 268 271 274 277 279 283
Height
3080 3084 3088 3092 3097 3101 3105 3108 3110 3113 3115 3117 3120 3123 3125 3126 3128 3130 3134 3132 3132 3130 3130 3129 3128 3128 3126 3125 3122 3120 3118 3111 3108 3105 3102 3099 3093 3090 3084 3079 3074 3071 3066 3061 3057 3052 3040 3032 3029 3024 3014 3001 2989 2978
3070 3073 3077 3082 3086 3090 3095 3098 3101 3104 3106 3109 3112 3114 3116 3117 3119 3122 3124 3126 3125 3124 3124 3122 3122 3121 3120 3119 3117 3114 3114 3109 3106 3102 3099 3094 3090 3085 3080 3076 3071 3067 3066 3061 3057 3048 3040 3033 3025 3018 3009 2998 2988 2976
3060 3062 3066 3071 3074 3078 3083 3088 3093 3096 3099 3101 3104 3106 3107 3108 3109 3113 3115 3117 3118 3117 3117 3115 3114 3114 3113 3112 3111 3109 3107 3104 3101 3098 3094 3090 3086 3079 3076 3069 3064 3060 3057 3052 3047 3040 3035 3028 3022 3014 3005 2997 2987 2976
3050 3052 3054 3058 3062 3065 3070 3077 3081 3086 3090 3093 3095 3097 3099 3100 3102 3103 3105 3108 3109 3110 3106 3107 3106 3107 3106 3105 3104 3102 3100 3098 3095 3092 3088 3083 3078 3073 3067 3066 3059 3058 3052 3047 3041 3037 3029 3023 3017 3010 3003 2995 2988 2981
3035 3039 3043 3047 3050 3054 3059 3063 3069 3074 3078 3082 3086 3087 3089 3090 3093 3094 3095 3097 3098 3104 3095 3095 3095 3098 3098 3098 3097 3095 3093 3091 3087 3084 3081 3078 3072 3066 3060 3053 3048 3048 3046 3042 3037 3032 3026 3022 3014 3007 3000 2993 2986 2979
3022 3026 3030 3035 3040 3042 3047 3052 3055 3061 3066 3069 3074 3076 3077 3079 3082 3085 3083 3084 3086 3088 3090 3087 3085 3087 3089 3090 3089 3088 3085 3082 3079 3077 3074 3067 3068 3063 3055 3042 3042 3041 3039 3037 3035 3030 3024 3018 3013 3006 3000 2993 2984 2977
3009 3013 3019 3023 3027 3032 3035 3038 3043 3047 3052 3057 3061 3064 3065 3069 3069 3070 3072 3074 3079 3081 3082 3079 3070 3073 3077 3078 3079 3079 3077 3074 3071 3067 3063 3060 3059 3057 3044 3036 3035 3033 3032 3032 3029 3024 3020 3015 3010 3004 2998 2991 2984 2976
2995 2999 3005 3011 3016 3020 3025 3028 3032 3034 3037 3043 3046 3050 3052 3053 3055 3057 3059 3062 3066 3070 3073 3068 3060 3062 3067 3068 3070 3070 3068 3066 3059 3058 3055 3050 3049 3046 3034 3030 3028 3027 3026 3026 3024 3019 3014 3010 3005 3000 2994 2989 2984 2977
2980 2986 2991 2997 3004 3009 3014 3018 3021 3022 3023 3025 3026 3029 3034 3036 3039 3041 3050 3052 3054 3062 3059 3053 3050 3057 3057 3061 3061 3061 3060 3057 3051 3046 3046 3043 3035 3031 3029 3025 3023 3022 3021 3021 3019 3016 3011 3007 3003 2997 2993 2988 2982 2976
2968 2972 2979 2983 2989 2995 3002 3009 3010 3011 3004 3006 3015 3017 3016 3021 3024 3036 3038 3042 3045 3045 3042 3035 3036 3042 3052 3052 3053 3056 3052 3050 3043 3038 3035 3027 3016 3024 3020 3017 3016 3017 3017 3016 3013 3012 3008 3004 3000 2994 2990 2985 2979 2973
2956 2959 2966 2972 2977 2984 2986 2995 3000 2997 2997 2998 2998 3001 3006 3010 3016 3019 3021 3026 3029 3023 3021 3018 3025 3033 3038 3042 3044 3044 3042 3041 3035 3031 3030 3016 3005 3011 3010 3010 3009 3011 3012 3011 3008 3006 3003 3001 2997 2993 2987 2982 2978 2973
2942 2946 2953 2960 2967 2971 2978 2978 2981 2990 2991 2992 2992 2992 2995 3000 2999 3001 3001 3007 3005 3005 3002 3004 3017 3025 3024 3028 3031 3033 3034 3033 3027 3022 3019 3006 3002 3002 3003 3003 3004 3006 3007 3005 3003 3001 3000 2996 2993 2989 2986 2979 2974 2967
2930 2934 2941 2948 2955 2962 2964 2967 2971 2975 2982 2984 2981 2981 2983 2983 2981 2980 2979 2984 2985 2981 2987 2999 3009 3015 3015 3019 3021 3023 3022 3020 3018 3011 3002 2996 2996 2996 2996 2996 2998 3000 3000 2999 2998 2998 2995 2992 2988 2987 2982 2975 2971 2965
2917 2922 2929 2937 2944 2950 2955 2959 2958 2962 2971 2971 2972 2970 2968 2962 2963 2970 2969 2971 2980 2984 2994 2996 3000 3006 3006 3007 3009 3010 3010 3010 3005 2997 2988 2991 2991 2991 2992 2993 2996 2995 2994 2995 2994 2994 2991 2987 2984 2980 2977 2972 2966 2959
2906 2911 2918 2926 2934 2940 2945 2950 2951 2951 2954 2956 2958 2955 2952 2955 2958 2962 2966 2970 2973 2980 2985 2987 2992 2995 2995 2997 2998 2998 2998 2992 2986 2981 2985 2986 2986 2987 2987 2988 2990 2990 2990 2989 2990 2988 2985 2983 2980 2976 2972 2967 2963 2957
2896 2901 2906 2916 2925 2931 2933 2940 2941 2943 2941 2939 2938 2943 2942 2945 2949 2954 2958 2961 2962 2968 2973 2977 2980 2982 2982 2984 2984 2981 2981 2970 2970 2974 2977 2981 2980 2982 2984 2985 2984 2984 2984 2984 2984 2983 2981 2979 2975 2972 2966 2961 2957 2953
2888 2889 2900 2909 2916 2921 2926 2927 2933 2932 2930 2923 2925 2930 2937 2938 2943 2947 2949 2951 2953 2955 2959 2963 2965 2966 2969 2970 2967 2961 2958 2966 2967 2967 2970 2973 2976 2976 2979 2981 2980 2978 2978 2979 2979 2978 2976 2974 2971 2966 2961 2955 2952 2948
2879 2885 2896 2901 2906 2912 2912 2916 2921 2916 2912 2912 2918 2922 2927 2930 2932 2939 2941 2942 2943 2945 2949 2951 2953 2952 2955 2954 2948 2953 2957 2960 2962 2962 2963 2965 2966 2971 2973 2975 2975 2974 2973 2974 2973 2973 2971 2968 2965 2960 2956 2951 2946 2943
2874 2882 2887 2892 2898 2903 2905 2905 2905 2904 2906 2908 2913 2915 2920 2922 2925 2931 2934 2934 2936 2940 2943 2943 2945 2939 2940 2945 2950 2951 2952 2953 2955 2957 2958 2960 2961 2962 2964 2967 2971 2970 2968 2969 2969 2969 2966 2964 2961 2956 2951 2945 2942 2938
2871 2875 2879 2884 2889 2893 2895 2896 2896 2900 2900 2903 2906 2908 2911 2914 2918 2921 2924 2927 2928 2931 2934 2932 2928 2936 2941 2942 2943 2944 2946 2948 2949 2950 2953 2956 2958 2960 2962 2961 2961 2965 2963 2964 2963 2961 2960 2958 2956 2952 2947 2942 2937 2934
2861 2865 2871 2877 2883 2887 2886 2886 2887 2892 2896 2898 2898 2901 2904 2907 2907 2910 2914 2916 2916 2919 2919 2919 2927 2933 2934 2935 2937 2939 2940 2943 2945 2947 2947 2951 2953 2953 2957 2957 2956 2958 2958 2959 2959 2956 2956 2954 2952 2946 2942 2938 2935 2931
2857 2862 2867 2872 2875 2877 2880 2881 2885 2887 2890 2892 2895 2894 2895 2896 2898 2900 2902 2904 2903 2904 2910 2916 2921 2923 2926 2927 2930 2932 2934 2935 2939 2941 2943 2943 2947 2948 2950 2952 2953 2953 2951 2952 2952 2951 2950 2949 2947 2944 2939 2936 2933 2929
2856 2860 2864 2868 2871 2873 2875 2878 2880 2881 2884 2885 2886 2887 2888 2889 2890 2892 2891 2890 2887 2895 2905 2909 2910 2913 2915 2919 2922 2924 2925 2928 2934 2936 2936 2939 2942 2944 2945 2946 2948 2949 2947 2947 2948 2946 2945 2944 2943 2940 2937 2933 2930 2928
2853 2859 2862 2864 2864 2866 2867 2870 2872 2876 2877 2877 2879 2881 2881 2883 2883 2883 2879 2873 2885 2894 2897 2899 2900 2902 2906 2911 2916 2916 2917 2922 2927 2929 2931 2934 2936 2938 2939 2940 2942 2943 2943 2943 2942 2942 2941 2940 2938 2937 2933 2930 2928 2926
2853 2856 2858 2856 2857 2861 2861 2862 2863 2865 2867 2869 2874 2875 2875 2877 2876 2873 2866 2870 2879 2883 2885 2888 2890 2894 2898 2905 2906 2908 2910 2914 2918 2923 2925 2927 2929 2932 2935 2935 2937 2937 2937 2937 2937 2937 2936 2936 2935 2933 2930 2927 2925 2923
2845 2847 2849 2847 2850 2853 2853 2856 2857 2858 2860 2863 2866 2867 2868 2869 2867 2862 2858 2865 2867 2872 2874 2877 2882 2885 2890 2894 2896 2900 2903 2906 2910 2914 2918 2922 2925 2927 2928 2930 2931 2931 2931 2932 2932 2931 2932 2931 2930 2928 2926 2923 2922 2920
2840 2840 2839 2840 2842 2844 2846 2848 2850 2852 2854 2857 2857 2860 2862 2861 2858 2855 2855 2858 2862 2863 2864 2867 2872 2877 2880 2885 2888 2891 2895 2899 2904 2910 2913 2916 2918 2921 2923 2923 2923 2925 2926 2926 2926 2926 2926 2926 2925 2923 2921 2919 2918 2916
2833 2833 2836 2838 2839 2841 2843 2844 2846 2847 2848 2849 2849 2849 2851 2850 2850 2852 2851 2853 2856 2857 2857 2859 2863 2868 2871 2875 2878 2882 2887 2892 2898 2903 2907 2910 2912 2915 2916 2917 2918 2918 2920 2921 2921 2921 2920 2919 2918 2917 2916 2915 2914 2912
2828 2830 2833 2833 2835 2836 2837 2838 2839 2839 2839 2839 2840 2841 2842 2842 2844 2845 2848 2849 2851 2852 2852 2854 2858 2862 2865 2869 2873 2878 2884 2890 2895 2899 2902 2904 2906 2909 2909 2910 2911 2913 2914 2914 2915 2915 2914 2912 2912 2911 2910 2909 2908 2907
2826 2827 2828 2829 2830 2830 2831 2831 2831 2832 2834 2835 2836 2836 2836 2837 2839 2840 2843 2844 2846 2847 2849 2852 2855 2859 2865 2870 2874 2879 2883 2886 2889 2892 2895 2898 2900 2901 2902 2903 2905 2906 2907 2908 2908 2908 2907 2906 2905 2905 2904 2904 2902 2902
2822 2822 2823 2824 2824 2824 2824 2825 2826 2827 2828 2829 2830 2831 2831 2832 2834 2837 2839 2842 2845 2847 2850 2852 2855 2858 2862 2867 2871 2876 2880 2883 2885 2887 2890 2892 2893 2895 2897 2897 2897 2898 2900 2901 2901 2901 2901 2900 2899 2899 2898 2897 2897 2896
2817 2817 2818 2819 2819 2820 2820 2820 2821 2822 2822 2822 2824 2826 2828 2830 2832 2835 2838 2842 2845 2848 2850 2852 2855 2859 2862 2864 2868 2871 2874 2877 2879 2881 2883 2885 2887 2888 2889 2890 2890 2892 2893 2894 2894 2895 2894 2894 2893 2893 2893 2892 2891 2891
2812 2813 2814 2815 2816 2817 2817 2818 2818 2818 2819 2820 2822 2825 2826 2829 2831 2835 2839 2842 2845 2848 2850 2853 2855 2858 2860 2862 2865 2867 2869 2870 2872 2874 2876 2878 2878 2879 2881 2882 2883 2884 2885 2886 2887 2887 2887 2887 2887 2887 2887 2887 2886 2886